User: anonymous   Login
Location: Cerbedi�res
(48.2182°N, 1.4849°W)
Time: 14:38:11
(UTC+00:00)
Language:

Cosmos 2360 Rocket - Orbit

View from above orbital plane
View from above orbital plane
View from above satellite
View from above satellite

Ground track
Ground track

The orbit data is extracted from the following two-line orbital elements,

1 25407U 98045B   21137.80226417 -.00000264  00000-0 -10990-3 0  9994
2 25407  71.0114 274.9118 0008035 200.2051 159.8755 14.15837246178672
Epoch (UTC): 17 May 2021 19:15:15
Eccentricity: 0.0008035
inclination: 71.0114°
perigee height: 833 km
apogee height: 845 km
right ascension of ascending node: 274.9118°
argument of perigee: 200.2051°
revolutions per day: 14.15837246
mean anomaly at epoch: 159.8755°
orbit number at epoch: 17867

The dashed part of the orbit path shows where the satellite is in the earth's shadow,  

DLR